| time (UTC) | temp C | wind direction | speed KPH | gust KPH | rain 1hr cm | rain 24hr cm | rain mn cm | humidity % | barometer mb |
| 20260505095525 | 30 | 96 | 3.2 | 17.7 | 0.00 | 0.00 | 0.00 | 67 | 1010.1 |
| 20260505095022 | 30 | 69 | 6.4 | 17.7 | 0.00 | 0.00 | 0.00 | 67 | 1010.1 |
| 20260505094542 | 30 | 96 | 6.4 | 16.1 | 0.00 | 0.00 | 0.00 | 67 | 1010.0 |
| 20260505094024 | 30 | 51 | 4.8 | 16.1 | 0.00 | 0.00 | 0.00 | 67 | 1009.9 |
| 20260505093523 | 30 | 77 | 4.8 | 16.1 | 0.00 | 0.00 | 0.00 | 68 | 1009.7 |
| 20260505093039 | 30 | 44 | 4.8 | 11.3 | 0.00 | 0.00 | 0.00 | 68 | 1009.7 |
| 20260505092521 | 30 | 94 | 3.2 | 12.9 | 0.00 | 0.00 | 0.00 | 69 | 1009.6 |
| 20260505092021 | 30 | 40 | 3.2 | 12.9 | 0.00 | 0.00 | 0.00 | 68 | 1009.6 |
| 20260505091539 | 31 | 86 | 3.2 | 14.5 | 0.00 | 0.00 | 0.00 | 69 | 1009.6 |
| 20260505091023 | 31 | 67 | 4.8 | 14.5 | 0.00 | 0.00 | 0.00 | 69 | 1009.4 |
| 20260505090524 | 31 | 103 | 4.8 | 14.5 | 0.00 | 0.00 | 0.00 | 68 | 1009.4 |
| 20260505090039 | 31 | 44 | 3.2 | 14.5 | 0.00 | 0.00 | 0.00 | 68 | 1009.4 |
| 20260505085520 | 31 | 53 | 4.8 | 14.5 | 0.00 | 0.00 | 0.00 | 68 | 1009.5 |
| 20260505085023 | 31 | 46 | 4.8 | 14.5 | 0.00 | 0.00 | 0.00 | 68 | 1009.5 |
| 20260505084541 | 31 | 114 | 3.2 | 14.5 | 0.00 | 0.00 | 0.00 | 67 | 1009.5 |
| 20260505084022 | 31 | 82 | 4.8 | 14.5 | 0.00 | 0.00 | 0.00 | 69 | 1009.5 |
| 20260505083522 | 31 | 59 | 3.2 | 17.7 | 0.00 | 0.00 | 0.00 | 68 | 1009.5 |
| 20260505083047 | 31 | 18 | 6.4 | 17.7 | 0.00 | 0.00 | 0.00 | 68 | 1009.6 |
| 20260505082520 | 31 | 130 | 4.8 | 17.7 | 0.00 | 0.00 | 0.00 | 68 | 1009.5 |
| 20260505082021 | 31 | 91 | 6.4 | 19.3 | 0.00 | 0.00 | 0.00 | 69 | 1009.5 |
| 20260505081547 | 31 | 74 | 6.4 | 19.3 | 0.00 | 0.00 | 0.00 | 67 | 1009.6 |
| 20260505081026 | 31 | 101 | 8.0 | 19.3 | 0.00 | 0.00 | 0.00 | 66 | 1009.6 |
| 20260505080523 | 31 | 46 | 8.0 | 20.9 | 0.00 | 0.00 | 0.00 | 66 | 1009.5 |
| 20260505080041 | 31 | 15 | 8.0 | 20.9 | 0.00 | 0.00 | 0.00 | 65 | 1009.5 |
| 20260505075521 | 32 | 103 | 9.7 | 19.3 | 0.00 | 0.00 | 0.00 | 65 | 1009.5 |
| 20260505075024 | 31 | 84 | 4.8 | 19.3 | 0.00 | 0.00 | 0.00 | 65 | 1009.4 |
| 20260505074543 | 31 | 108 | 4.8 | 16.1 | 0.00 | 0.00 | 0.00 | 66 | 1009.4 |
| 20260505074022 | 31 | 46 | 6.4 | 16.1 | 0.00 | 0.00 | 0.00 | 67 | 1009.5 |
| 20260505073522 | 31 | 92 | 6.4 | 17.7 | 0.00 | 0.00 | 0.00 | 67 | 1009.5 |
| 20260505073036 | 31 | 46 | 8.0 | 17.7 | 0.00 | 0.00 | 0.00 | 68 | 1009.4 |
| 20260505072522 | 31 | 75 | 9.7 | 20.9 | 0.00 | 0.00 | 0.00 | 67 | 1009.6 |
| 20260505072022 | 31 | 103 | 9.7 | 20.9 | 0.00 | 0.00 | 0.00 | 67 | 1009.6 |
| 20260505071541 | 31 | 121 | 16.1 | 22.5 | 0.00 | 0.00 | 0.00 | 66 | 1009.6 |
| 20260505071022 | 31 | 107 | 16.1 | 22.5 | 0.00 | 0.00 | 0.00 | 65 | 1009.6 |
| 20260505070522 | 31 | 113 | 14.5 | 22.5 | 0.00 | 0.00 | 0.00 | 66 | 1009.6 |
| 20260505070047 | 32 | 107 | 9.7 | 19.3 | 0.00 | 0.00 | 0.00 | 65 | 1009.6 |
| 20260505065522 | 32 | 88 | 6.4 | 19.3 | 0.00 | 0.00 | 0.00 | 64 | 1009.5 |
| 20260505065022 | 32 | 79 | 11.3 | 19.3 | 0.00 | 0.00 | 0.00 | 64 | 1009.5 |
| 20260505064553 | 32 | 104 | 11.3 | 19.3 | 0.00 | 0.00 | 0.00 | 63 | 1009.5 |
| 20260505064023 | 31 | 65 | 11.3 | 19.3 | 0.00 | 0.00 | 0.00 | 65 | 1009.5 |
| 20260505063522 | 32 | 116 | 11.3 | 20.9 | 0.00 | 0.00 | 0.00 | 65 | 1009.6 |
| 20260505063043 | 32 | 83 | 14.5 | 20.9 | 0.00 | 0.00 | 0.00 | 64 | 1009.6 |
| 20260505062521 | 32 | 117 | 12.9 | 19.3 | 0.00 | 0.00 | 0.00 | 65 | 1009.6 |
| 20260505062023 | 32 | 100 | 6.4 | 20.9 | 0.00 | 0.00 | 0.00 | 66 | 1009.5 |
| 20260505061540 | 32 | 89 | 12.9 | 20.9 | 0.00 | 0.00 | 0.00 | 65 | 1009.5 |
| 20260505061020 | 32 | 75 | 6.4 | 19.3 | 0.00 | 0.00 | 0.00 | 64 | 1009.5 |
| 20260505060523 | 32 | 68 | 12.9 | 19.3 | 0.00 | 0.00 | 0.00 | 64 | 1009.6 |
| 20260505060041 | 32 | 102 | 8.0 | 17.7 | 0.00 | 0.00 | 0.00 | 64 | 1009.6 |
| 20260505055520 | 32 | 136 | 12.9 | 20.9 | 0.00 | 0.00 | 0.00 | 65 | 1009.6 |
| 20260505055020 | 32 | 153 | 12.9 | 20.9 | 0.00 | 0.00 | 0.00 | 65 | 1009.6 |
| 20260505054541 | 31 | 111 | 14.5 | 20.9 | 0.00 | 0.00 | 0.00 | 63 | 1009.6 |
| 20260505054023 | 32 | 128 | 14.5 | 20.9 | 0.00 | 0.00 | 0.00 | 63 | 1009.7 |
| 20260505053520 | 32 | 148 | 12.9 | 17.7 | 0.00 | 0.00 | 0.00 | 63 | 1009.8 |
| 20260505053036 | 32 | 148 | 6.4 | 16.1 | 0.00 | 0.00 | 0.00 | 63 | 1009.8 |
| 20260505052520 | 32 | 111 | 8.0 | 16.1 | 0.00 | 0.00 | 0.00 | 63 | 1009.8 |
| 20260505052020 | 32 | 99 | 11.3 | 16.1 | 0.00 | 0.00 | 0.00 | 62 | 1009.9 |
| 20260505051539 | 32 | 55 | 11.3 | 16.1 | 0.00 | 0.00 | 0.00 | 60 | 1010.0 |
| 20260505051022 | 32 | 141 | 8.0 | 14.5 | 0.00 | 0.00 | 0.00 | 63 | 1010.0 |
| 20260505050523 | 32 | 72 | 3.2 | 16.1 | 0.00 | 0.00 | 0.00 | 60 | 1009.9 |
| 20260505041553 | 32 | 122 | 11.3 | 19.3 | 0.00 | 0.00 | 0.00 | 64 | 1010.5 |
| 20260505041020 | 31 | 136 | 11.3 | 27.4 | 0.00 | 0.00 | 0.00 | 65 | 1010.6 |
| 20260505040523 | 31 | 141 | 9.7 | 27.4 | 0.00 | 0.00 | 0.00 | 67 | 1010.7 |
| 20260505040039 | 32 | 148 | 14.5 | 22.5 | 0.00 | 0.00 | 0.00 | 65 | 1010.8 |
| 20260505035522 | 32 | 104 | 12.9 | 20.9 | 0.00 | 0.00 | 0.00 | 63 | 1010.8 |
| 20260505035021 | 31 | 119 | 12.9 | 19.3 | 0.00 | 0.00 | 0.00 | 67 | 1010.8 |
| 20260505034541 | 31 | 162 | 9.7 | 17.7 | 0.00 | 0.00 | 0.00 | 68 | 1010.9 |
| 20260505034026 | 31 | 141 | 14.5 | 19.3 | 0.00 | 0.00 | 0.00 | 67 | 1011.0 |
| 20260505033526 | 31 | 140 | 11.3 | 19.3 | 0.00 | 0.00 | 0.00 | 67 | 1011.0 |
| 20260505033040 | 31 | 109 | 11.3 | 16.1 | 0.00 | 0.00 | 0.00 | 69 | 1011.0 |
| 20260505032525 | 31 | 133 | 9.7 | 16.1 | 0.00 | 0.00 | 0.00 | 65 | 1011.0 |
| 20260505032026 | 31 | 177 | 6.4 | 12.9 | 0.00 | 0.00 | 0.00 | 67 | 1011.0 |
| 20260505031540 | 32 | 137 | 4.8 | 12.9 | 0.00 | 0.00 | 0.00 | 62 | 1011.0 |
| 20260505031023 | 31 | 117 | 3.2 | 12.9 | 0.00 | 0.00 | 0.00 | 62 | 1011.1 |
| 20260505030523 | 32 | 124 | 8.0 | 12.9 | 0.00 | 0.00 | 0.00 | 63 | 1011.1 |
| 20260505030038 | 32 | 88 | 4.8 | 16.1 | 0.00 | 0.00 | 0.00 | 60 | 1011.2 |
| 20260505025520 | 32 | 98 | 8.0 | 16.1 | 0.00 | 0.00 | 0.00 | 64 | 1011.1 |
| 20260505025021 | 32 | 130 | 6.4 | 19.3 | 0.00 | 0.00 | 0.00 | 64 | 1011.2 |
| 20260505024544 | 31 | 150 | 11.3 | 24.1 | 0.00 | 0.00 | 0.00 | 60 | 1011.2 |
| 20260505024020 | 32 | 108 | 8.0 | 24.1 | 0.00 | 0.00 | 0.00 | 63 | 1011.2 |
| 20260505023522 | 31 | 134 | 14.5 | 24.1 | 0.00 | 0.00 | 0.00 | 62 | 1011.3 |
| 20260505023043 | 31 | 153 | 3.2 | 16.1 | 0.00 | 0.00 | 0.00 | 61 | 1011.3 |
| 20260505022523 | 31 | 96 | 8.0 | 19.3 | 0.00 | 0.00 | 0.00 | 60 | 1011.5 |
| 20260505022020 | 31 | 105 | 8.0 | 19.3 | 0.00 | 0.00 | 0.00 | 60 | 1011.5 |
| 20260505021544 | 31 | 138 | 11.3 | 22.5 | 0.00 | 0.00 | 0.00 | 60 | 1011.5 |
| 20260505021023 | 31 | 119 | 14.5 | 22.5 | 0.00 | 0.00 | 0.00 | 60 | 1011.4 |
| 20260505020521 | 31 | 136 | 11.3 | 16.1 | 0.00 | 0.00 | 0.00 | 61 | 1011.5 |
| 20260505020038 | 31 | 132 | 9.7 | 16.1 | 0.00 | 0.00 | 0.00 | 62 | 1011.5 |
| 20260505015520 | 31 | 131 | 6.4 | 16.1 | 0.00 | 0.00 | 0.00 | 64 | 1011.5 |
| 20260505015024 | 31 | 126 | 11.3 | 16.1 | 0.00 | 0.00 | 0.00 | 62 | 1011.6 |
| 20260505014542 | 31 | 160 | 11.3 | 17.7 | 0.00 | 0.00 | 0.00 | 63 | 1011.6 |
| 20260505014020 | 31 | 134 | 11.3 | 17.7 | 0.00 | 0.00 | 0.00 | 63 | 1011.7 |
| 20260505013521 | 31 | 130 | 11.3 | 17.7 | 0.00 | 0.00 | 0.00 | 63 | 1011.6 |
| 20260505013036 | 30 | 167 | 6.4 | 16.1 | 0.00 | 0.00 | 0.00 | 63 | 1011.8 |
| 20260505012520 | 30 | 159 | 8.0 | 17.7 | 0.00 | 0.00 | 0.00 | 66 | 1011.9 |
| 20260505012020 | 30 | 138 | 9.7 | 17.7 | 0.00 | 0.00 | 0.00 | 66 | 1011.8 |
| 20260505011536 | 30 | 140 | 9.7 | 16.1 | 0.00 | 0.00 | 0.00 | 67 | 1011.8 |
| 20260505011020 | 30 | 193 | 6.4 | 16.1 | 0.00 | 0.00 | 0.00 | 68 | 1011.7 |
| 20260505010520 | 30 | 154 | 8.0 | 12.9 | 0.00 | 0.00 | 0.00 | 67 | 1011.7 |
| 20260505010043 | 30 | 288 | 3.2 | 8.0 | 0.00 | 0.00 | 0.00 | 66 | 1011.6 |
| 20260505005523 | 30 | 231 | 3.2 | 8.0 | 0.00 | 0.00 | 0.00 | 67 | 1011.6 |
| 20260505005020 | 30 | 285 | 1.6 | 3.2 | 0.00 | 0.00 | 0.00 | 67 | 1011.7 |
| 20260505004538 | 29 | 207 | 1.6 | 3.2 | 0.00 | 0.00 | 0.00 | 69 | 1011.7 |
| 20260505004020 | 30 | 155 | 1.6 | 4.8 | 0.00 | 0.00 | 0.00 | 65 | 1011.8 |
| 20260505003527 | 29 | 0 | 0.0 | 4.8 | 0.00 | 0.00 | 0.00 | 68 | 1011.8 |
| 20260505003039 | 29 | 228 | 1.6 | 4.8 | 0.00 | 0.00 | 0.00 | 70 | 1011.8 |
| 20260505002520 | 29 | 248 | 3.2 | 4.8 | 0.00 | 0.00 | 0.00 | 68 | 1011.8 |
| 20260505002021 | 29 | 215 | 1.6 | 3.2 | 0.00 | 0.00 | 0.00 | 69 | 1011.7 |
| 20260505001548 | 28 | 256 | 1.6 | 3.2 | 0.00 | 0.00 | 0.00 | 72 | 1011.7 |
| 20260505001020 | 28 | 252 | 1.6 | 4.8 | 0.00 | 0.00 | 0.00 | 74 | 1011.6 |
| 20260505000520 | 28 | 196 | 3.2 | 4.8 | 0.00 | 0.00 | 0.00 | 72 | 1011.8 |
| 20260505000041 | 28 | 233 | 3.2 | 4.8 | 0.00 | 0.00 | 0.00 | 71 | 1011.8 |
| 20260504235520 | 28 | 221 | 1.6 | 3.2 | 0.00 | 0.00 | 0.00 | 71 | 1011.9 |
| 20260504235020 | 28 | 94 | 0.0 | 4.8 | 0.00 | 0.00 | 0.00 | 73 | 1011.8 |
| 20260504234533 | 28 | 94 | 1.6 | 4.8 | 0.00 | 0.00 | 0.00 | 73 | 1011.9 |
| 20260504234020 | 28 | 88 | 1.6 | 9.7 | 0.00 | 0.00 | 0.00 | 73 | 1011.7 |
| 20260504233521 | 28 | 113 | 4.8 | 9.7 | 0.00 | 0.00 | 0.00 | 74 | 1011.7 |
| 20260504233038 | 27 | 107 | 0.0 | 3.2 | 0.00 | 0.00 | 0.00 | 75 | 1011.8 |
| 20260504232524 | 27 | 0 | 0.0 | 0.0 | 0.00 | 0.00 | 0.00 | 76 | 1011.7 |
| 20260504232020 | 27 | 0 | 0.0 | 0.0 | 0.00 | 0.00 | 0.00 | 76 | 1011.8 |
| 20260504231555 | 27 | 0 | 0.0 | 0.0 | 0.00 | 0.00 | 0.00 | 77 | 1011.7 |
| 20260504231024 | 27 | 0 | 0.0 | 0.0 | 0.00 | 0.00 | 0.00 | 78 | 1011.7 |
| 20260504230520 | 27 | 0 | 0.0 | 0.0 | 0.00 | 0.00 | 0.00 | 79 | 1011.7 |
| 20260504230038 | 26 | 0 | 0.0 | 0.0 | 0.00 | 0.00 | 0.00 | 80 | 1011.6 |
| 20260504225524 | 26 | 0 | 0.0 | 0.0 | 0.00 | 0.00 | 0.00 | 82 | 1011.6 |
| 20260504225021 | 26 | 0 | 0.0 | 0.0 | 0.00 | 0.00 | 0.00 | 82 | 1011.6 |
| 20260504224540 | 25 | 0 | 0.0 | 3.2 | 0.00 | 0.00 | 0.00 | 83 | 1011.6 |
| 20260504224023 | 25 | 0 | 0.0 | 3.2 | 0.00 | 0.00 | 0.00 | 83 | 1011.4 |
| 20260504223523 | 25 | 0 | 0.0 | 3.2 | 0.00 | 0.00 | 0.00 | 84 | 1011.5 |
| 20260504223041 | 25 | 336 | 0.0 | 3.2 | 0.00 | 0.00 | 0.00 | 85 | 1011.4 |
| 20260504222522 | 24 | 336 | 0.0 | 3.2 | 0.00 | 0.00 | 0.00 | 87 | 1011.3 |
| 20260504222021 | 24 | 336 | 1.6 | 1.6 | 0.00 | 0.00 | 0.00 | 86 | 1011.2 |
| 20260504221543 | 24 | 336 | 1.6 | 1.6 | 0.00 | 0.00 | 0.00 | 85 | 1011.3 |
| 20260504221020 | 24 | 321 | 1.6 | 3.2 | 0.00 | 0.00 | 0.00 | 86 | 1011.3 |
| 20260504220521 | 23 | 321 | 0.0 | 3.2 | 0.00 | 0.00 | 0.00 | 86 | 1011.2 |
| 20260504220040 | 23 | 0 | 0.0 | 1.6 | 0.00 | 0.00 | 0.00 | 88 | 1011.4 |
| 20260504215521 | 23 | 32 | 0.0 | 1.6 | 0.00 | 0.00 | 0.00 | 88 | 1011.4 |
| 20260504215023 | 23 | 0 | 0.0 | 0.0 | 0.00 | 0.00 | 0.00 | 88 | 1011.4 |
| 20260504214538 | 23 | 0 | 0.0 | 3.2 | 0.00 | 0.00 | 0.00 | 88 | 1011.3 |
| 20260504214025 | 23 | 0 | 0.0 | 3.2 | 0.00 | 0.00 | 0.00 | 88 | 1011.3 |
| 20260504213522 | 23 | 249 | 0.0 | 3.2 | 0.00 | 0.00 | 0.00 | 89 | 1011.3 |
| 20260504213034 | 23 | 249 | 1.6 | 1.6 | 0.00 | 0.00 | 0.00 | 89 | 1011.1 |
| 20260504212520 | 23 | 249 | 0.0 | 3.2 | 0.00 | 0.00 | 0.00 | 89 | 1011.1 |
| 20260504212020 | 23 | 0 | 0.0 | 3.2 | 0.00 | 0.00 | 0.00 | 89 | 1011.1 |
| 20260504211539 | 23 | 243 | 1.6 | 3.2 | 0.00 | 0.00 | 0.00 | 89 | 1011.1 |
| 20260504211022 | 23 | 309 | 0.0 | 3.2 | 0.00 | 0.00 | 0.00 | 89 | 1011.1 |
| 20260504210520 | 23 | 0 | 0.0 | 3.2 | 0.00 | 0.00 | 0.00 | 89 | 1011.1 |
| 20260504210100 | 23 | 0 | 0.0 | 1.6 | 0.00 | 0.00 | 0.00 | 88 | 1011.1 |
| 20260504205520 | 23 | 0 | 0.0 | 3.2 | 0.00 | 0.00 | 0.00 | 88 | 1011.0 |
| 20260504205021 | 23 | 309 | 1.6 | 3.2 | 0.00 | 0.00 | 0.00 | 88 | 1011.0 |
| 20260504204547 | 24 | 309 | 1.6 | 3.2 | 0.00 | 0.00 | 0.00 | 87 | 1011.0 |
| 20260504204022 | 24 | 360 | 0.0 | 3.2 | 0.00 | 0.00 | 0.00 | 87 | 1010.9 |
| 20260504203521 | 24 | 0 | 0.0 | 3.2 | 0.00 | 0.00 | 0.00 | 87 | 1010.9 |
| 20260504203045 | 24 | 360 | 0.0 | 1.6 | 0.00 | 0.00 | 0.00 | 86 | 1010.8 |
| 20260504202521 | 24 | 360 | 0.0 | 3.2 | 0.00 | 0.00 | 0.00 | 85 | 1010.7 |
| 20260504202021 | 24 | 360 | 1.6 | 3.2 | 0.00 | 0.00 | 0.00 | 84 | 1010.7 |
| 20260504201545 | 24 | 360 | 1.6 | 3.2 | 0.00 | 0.00 | 0.00 | 85 | 1010.7 |
| 20260504201022 | 23 | 9 | 1.6 | 3.2 | 0.00 | 0.00 | 0.00 | 86 | 1010.7 |
| 20260504200522 | 23 | 325 | 0.0 | 3.2 | 0.00 | 0.00 | 0.00 | 86 | 1010.6 |
| 20260504200036 | 23 | 325 | 1.6 | 3.2 | 0.00 | 0.00 | 0.00 | 87 | 1010.7 |
| 20260504195520 | 24 | 0 | 0.0 | 3.2 | 0.00 | 0.00 | 0.00 | 88 | 1010.7 |
| 20260504195023 | 24 | 0 | 0.0 | 3.2 | 0.00 | 0.00 | 0.00 | 88 | 1010.7 |
| 20260504194559 | 24 | 0 | 0.0 | 3.2 | 0.00 | 0.00 | 0.00 | 87 | 1010.7 |
| 20260504194022 | 24 | 0 | 0.0 | 3.2 | 0.00 | 0.00 | 0.00 | 87 | 1010.6 |
| 20260504193523 | 24 | 302 | 0.0 | 3.2 | 0.00 | 0.00 | 0.00 | 87 | 1010.4 |
| 20260504193038 | 24 | 302 | 3.2 | 3.2 | 0.00 | 0.00 | 0.00 | 86 | 1010.6 |
| 20260504192522 | 25 | 314 | 1.6 | 3.2 | 0.00 | 0.00 | 0.00 | 86 | 1010.7 |
| 20260504192024 | 25 | 0 | 0.0 | 3.2 | 0.00 | 0.00 | 0.00 | 85 | 1010.6 |
| 20260504191546 | 25 | 0 | 0.0 | 3.2 | 0.00 | 0.00 | 0.00 | 83 | 1010.6 |
| 20260504191021 | 25 | 40 | 1.6 | 3.2 | 0.00 | 0.00 | 0.00 | 83 | 1010.6 |
| 20260504190523 | 25 | 31 | 0.0 | 6.4 | 0.00 | 0.00 | 0.00 | 83 | 1010.6 |
| 20260504190045 | 25 | 31 | 1.6 | 6.4 | 0.00 | 0.00 | 0.00 | 83 | 1010.7 |
| 20260504185525 | 25 | 49 | 3.2 | 4.8 | 0.00 | 0.00 | 0.00 | 83 | 1010.8 |
| 20260504185024 | 25 | 70 | 0.0 | 3.2 | 0.00 | 0.00 | 0.00 | 84 | 1010.8 |
| 20260504184539 | 25 | 0 | 0.0 | 3.2 | 0.00 | 0.00 | 0.00 | 84 | 1010.8 |
| 20260504184020 | 24 | 61 | 0.0 | 3.2 | 0.00 | 0.00 | 0.00 | 84 | 1010.9 |
| 20260504183523 | 24 | 72 | 0.0 | 3.2 | 0.00 | 0.00 | 0.00 | 85 | 1010.9 |
| 20260504183039 | 24 | 48 | 0.0 | 3.2 | 0.00 | 0.00 | 0.00 | 85 | 1010.9 |
| 20260504182520 | 24 | 0 | 0.0 | 4.8 | 0.00 | 0.00 | 0.00 | 85 | 1011.0 |
| 20260504182023 | 24 | 57 | 0.0 | 4.8 | 0.00 | 0.00 | 0.00 | 85 | 1011.0 |
| 20260504181545 | 24 | 38 | 1.6 | 6.4 | 0.00 | 0.00 | 0.00 | 85 | 1011.0 |
| 20260504181021 | 24 | 22 | 3.2 | 6.4 | 0.00 | 0.00 | 0.00 | 85 | 1011.0 |
| 20260504180522 | 24 | 34 | 1.6 | 6.4 | 0.00 | 0.00 | 0.00 | 85 | 1011.1 |
| 20260504180104 | 25 | 38 | 0.0 | 3.2 | 0.00 | 0.00 | 0.00 | 86 | 1011.0 |
| 20260504175520 | 25 | 38 | 0.0 | 3.2 | 0.00 | 0.00 | 0.00 | 85 | 1011.1 |
| 20260504175020 | 25 | 38 | 0.0 | 3.2 | 0.00 | 0.00 | 0.00 | 86 | 1011.1 |
| 20260504174538 | 25 | 38 | 0.0 | 3.2 | 0.00 | 0.00 | 0.00 | 85 | 1011.1 |
| 20260504174024 | 25 | 0 | 0.0 | 3.2 | 0.00 | 0.00 | 0.00 | 87 | 1011.2 |
| 20260504173524 | 25 | 0 | 0.0 | 3.2 | 0.00 | 0.00 | 0.00 | 88 | 1011.2 |
| 20260504173048 | 25 | 0 | 0.0 | 0.0 | 0.00 | 0.00 | 0.00 | 87 | 1011.3 |
| 20260504172524 | 25 | 0 | 0.0 | 0.0 | 0.00 | 0.00 | 0.00 | 87 | 1011.4 |
| 20260504172025 | 25 | 0 | 0.0 | 0.0 | 0.00 | 0.00 | 0.00 | 87 | 1011.4 |
| 20260504171538 | 25 | 0 | 0.0 | 3.2 | 0.00 | 0.00 | 0.00 | 86 | 1011.5 |
| 20260504171024 | 25 | 0 | 0.0 | 3.2 | 0.00 | 0.00 | 0.00 | 86 | 1011.6 |
| 20260504170524 | 25 | 0 | 0.0 | 3.2 | 0.00 | 0.00 | 0.00 | 87 | 1011.6 |
| 20260504151026 | 26 | 0 | 0.0 | 0.0 | 0.00 | 0.00 | 0.00 | 80 | 1012.4 |
| 20260504150524 | 26 | 0 | 0.0 | 0.0 | 0.00 | 0.00 | 0.00 | 80 | 1012.4 |
| 20260504141024 | 27 | 40 | 1.6 | 1.6 | 0.00 | 0.00 | 0.00 | 76 | 1012.3 |
| 20260504140524 | 27 | 0 | 0.0 | 3.2 | 0.00 | 0.00 | 0.00 | 74 | 1012.2 |
| 20260504130525 | 28 | 118 | 3.2 | 4.8 | 0.00 | 0.00 | 0.00 | 70 | 1011.6 |
| 20260504110527 | 29 | 150 | 16.1 | 24.1 | 0.00 | 0.00 | 0.00 | 63 | 1010.5 |
| 20260504100524 | 31 | 136 | 16.1 | 22.5 | 0.00 | 0.00 | 0.00 | 59 | 1009.6 |